Meteo Giornale » Osservazioni meteo Italia » Pratica Di Mare

ore: 02:55 - Osservazioni Meteo Pratica Di Mare
Lat. 41° 39' N Lon. 12° 27' E Alt. 6 metri s.l.m.

sereno Europe/Rome

8 °C

Sereno

Temp. 24 Ore

8 °C

17 °C

Nord

14.8 Km/h

Dew point 5 °C

Umidità 81 %

Visibilità  10 Km

Il sole sorge alle ore 07:03

Il sole tramonta alle ore 16:48

Data e Ora Cielo e Fenomeni T °C DP °C Um. % Pres. hPa Vis. km Vento km/h
Oggi h: 02:55 sereno Sereno 8 5 81 1014 10 N 14.8
Oggi h: 01:55 sereno Sereno 9 6 81 1014 10 N 14.8
Oggi h: 00:55 sereno Sereno 10 6 76 1014 10 N/NE 16.7
Ieri h: 23:55 sereno Sereno 10 6 76 1014 10 N/NE 11.1
Ieri h: 22:55 sereno Sereno 10 6 76 1014 10 N/NE 14.8
Ieri h: 21:55 sereno Sereno 11 6 71 1014 10 N/NE 14.8
Ieri h: 20:55 sereno Sereno 11 7 76 1013 10 N 11.1
Ieri h: 19:55 sereno Sereno 11 7 76 1013 10 N 7.4
Ieri h: 18:55 sereno Sereno 12 8 76 1013 10 N/NO 9.3
Ieri h: 17:55 poco_nuvoloso Poco Nuvoloso 13 10 81 1013 10 N 5.5
Ieri h: 16:55 nuvoloso Nuvoloso 14 10 76 1013 10 N 5.5
Ieri h: 15:55 nuvoloso Nuvoloso 17 10 63 1013 10 N 5.5
Ieri h: 14:55 nuvoloso Nuvoloso 17 9 59 1013 10 N 5.5
Ieri h: 13:55 nuvoloso Nuvoloso 17 9 59 1013 10 N 5.5
Ieri h: 12:55 nuvoloso Nuvoloso 16 8 58 1013 10 N 11.1
Ieri h: 11:55 nuvoloso Nuvoloso 16 9 63 1013 10 N/NE 13
Ieri h: 10:55 nuvoloso Nuvoloso 15 9 67 1014 10 N/NE 14.8
Ieri h: 06:55 sereno Sereno 9 7 87 1013 10 N/NE 18.5
Ieri h: 05:55 sereno Sereno 9 7 87 1013 10 NE 16.7
Ieri h: 04:55 sereno Sereno 9 7 87 1013 10 N/NE 18.5
Ieri h: 03:55 sereno Sereno 9 7 87 1013 10 N/NE 16.7